When you browse on this site, cookies collect data to enhance your experience and personalize the content and advertising you see.
Visit our Privacy Policy to learn more. By continuing to use the site, you agree to this use of cookies and data.
  • In Hungary
  • List of Countries
  • For 7 days
  • Water Temperature
  • Weather Map
  • News
  • Weather Widgets
  • user-avatar
    Login

    Hourly Weather La Estrella

    Today, 23 August, Friday

    Time Temperature Precipitation Wind Pressure Humidity
    00:00 +14°C° 0 mm 0 mps 613 mmHg 91%
    01:00 +14°C° 0 mm 0 mps 612 mmHg 91%
    02:00 +14°C° 0 mm 0 mps 612 mmHg 90%
    03:00 +14°C° 0 mm 0 mps 612 mmHg 90%
    04:00 +13°C° 0 mm 0 mps 612 mmHg 90%
    05:00 +14°C° 0 mm 0 mps 612 mmHg 89%
    06:00 +14°C° 0 mm 0 mps 613 mmHg 87%
    07:00 +15°C° 0 mm 0 mps 613 mmHg 84%
    08:00 +18°C° 0 mm 0 mps 615 mmHg 73%
    09:00 +23°C° 0 mm 1 mps 616 mmHg 62%
    10:00 +26°C° 0 mm 1 mps 617 mmHg 51%
    11:00 +27°C° 0.1 mm 1 mps 616 mmHg 48%
    12:00 +28°C° 0.1 mm 1 mps 616 mmHg 44%
    13:00 +29°C° 0.1 mm 1 mps 616 mmHg 41%
    14:00 +29°C° 0.1 mm 1 mps 615 mmHg 42%
    15:00 +28°C° 0.1 mm 1 mps 615 mmHg 43%
    16:00 +28°C° 0.1 mm 1 mps 614 mmHg 43%
    17:00 +25°C° 0.2 mm 1 mps 613 mmHg 56%
    18:00 +22°C° 0.2 mm 1 mps 613 mmHg 69%
    19:00 +19°C° 0.2 mm 1 mps 612 mmHg 82%
    20:00 +19°C° 0.7 mm 1 mps 612 mmHg 85%
    21:00 +18°C° 0.7 mm 1 mps 613 mmHg 88%
    22:00 +16°C° 0.7 mm 1 mps 613 mmHg 92%
    23:00 +15°C° 0.1 mm 1 mps 613 mmHg 92%

    Tomorrow, 24 August, Saturday

    Time Temperature Precipitation Wind Pressure Humidity
    00:00 +15°C° 0.1 mm 1 mps 612 mmHg 93%
    01:00 +15°C° 0.1 mm 1 mps 612 mmHg 93%
    02:00 +14°C° 0 mm 0 mps 612 mmHg 93%
    03:00 +14°C° 0 mm 0 mps 612 mmHg 94%
    04:00 +14°C° 0 mm 0 mps 612 mmHg 94%
    05:00 +14°C° 0 mm 0 mps 612 mmHg 93%
    06:00 +15°C° 0 mm 0 mps 612 mmHg 91%
    07:00 +15°C° 0 mm 0 mps 613 mmHg 89%
    08:00 +18°C° 0 mm 0 mps 614 mmHg 76%
    09:00 +23°C° 0 mm 1 mps 615 mmHg 64%
    10:00 +26°C° 0 mm 1 mps 616 mmHg 51%
    11:00 +27°C° 0.1 mm 1 mps 616 mmHg 48%
    12:00 +28°C° 0.1 mm 1 mps 616 mmHg 44%
    13:00 +29°C° 0.1 mm 1 mps 616 mmHg 41%
    14:00 +29°C° 0.2 mm 1 mps 615 mmHg 43%
    15:00 +28°C° 0.2 mm 1 mps 614 mmHg 44%
    16:00 +28°C° 0.2 mm 1 mps 614 mmHg 46%
    17:00 +25°C° 0.5 mm 1 mps 613 mmHg 59%
    18:00 +22°C° 0.5 mm 1 mps 613 mmHg 72%
    19:00 +19°C° 0.5 mm 1 mps 612 mmHg 85%
    20:00 +18°C° 0.9 mm 1 mps 612 mmHg 87%
    21:00 +16°C° 0.9 mm 1 mps 612 mmHg 90%
    22:00 +16°C° 0.9 mm 1 mps 613 mmHg 92%
    23:00 +16°C° 0.3 mm 1 mps 612 mmHg 93%

    Day after tomorrow, 25 August, Sunday

    Time Temperature Precipitation Wind Pressure Humidity
    00:00 +15°C° 0.3 mm 1 mps 612 mmHg 94%
    01:00 +15°C° 0.3 mm 1 mps 612 mmHg 95%
    02:00 +14°C° 0.5 mm 0 mps 612 mmHg 95%
    03:00 +14°C° 0.5 mm 0 mps 612 mmHg 95%
    04:00 +15°C° 0.5 mm 0 mps 612 mmHg 96%
    05:00 +15°C° 0.2 mm 0 mps 612 mmHg 96%
    06:00 +15°C° 0.2 mm 0 mps 612 mmHg 96%
    07:00 +15°C° 0.2 mm 0 mps 613 mmHg 95%
    08:00 +17°C° 0 mm 0 mps 614 mmHg 84%
    09:00 +20°C° 0 mm 0 mps 615 mmHg 73%
    10:00 +22°C° 0 mm 0 mps 616 mmHg 62%
    11:00 +25°C° 0.3 mm 1 mps 615 mmHg 57%
    12:00 +27°C° 0.3 mm 1 mps 615 mmHg 53%
    13:00 +28°C° 0.3 mm 1 mps 615 mmHg 48%
    14:00 +27°C° 0.4 mm 1 mps 614 mmHg 51%
    15:00 +27°C° 0.4 mm 1 mps 614 mmHg 54%
    16:00 +26°C° 0.4 mm 1 mps 613 mmHg 57%
    17:00 +23°C° 0.6 mm 1 mps 612 mmHg 67%
    18:00 +21°C° 0.6 mm 1 mps 612 mmHg 77%
    19:00 +19°C° 0.6 mm 1 mps 611 mmHg 87%
    20:00 +18°C° 0.9 mm 1 mps 612 mmHg 89%
    21:00 +18°C° 0.9 mm 1 mps 612 mmHg 90%
    22:00 +15°C° 0.9 mm 0 mps 613 mmHg 92%
    23:00 +15°C° 0.1 mm 0 mps 612 mmHg 93%

    26 August, Monday

    Time Temperature Precipitation Wind Pressure Humidity
    00:00 +14°C° 0.1 mm 0 mps 612 mmHg 93%
    01:00 +14°C° 0.1 mm 0 mps 611 mmHg 94%
    02:00 +14°C° 0 mm 0 mps 611 mmHg 94%
    03:00 +14°C° 0 mm 0 mps 611 mmHg 94%
    04:00 +14°C° 0 mm 0 mps 611 mmHg 95%
    05:00 +14°C° 0 mm 0 mps 612 mmHg 94%
    06:00 +14°C° 0 mm 0 mps 612 mmHg 93%
    07:00 +15°C° 0 mm 0 mps 612 mmHg 92%
    08:00 +17°C° 0.2 mm 0 mps 613 mmHg 81%
    09:00 +20°C° 0.2 mm 0 mps 615 mmHg 70%
    10:00 +24°C° 0.2 mm 1 mps 616 mmHg 60%
    11:00 +25°C° 0.5 mm 1 mps 615 mmHg 57%
    12:00 +26°C° 0.5 mm 1 mps 615 mmHg 54%
    13:00 +27°C° 0.5 mm 1 mps 615 mmHg 51%
    14:00 +27°C° 0.7 mm 1 mps 614 mmHg 54%
    15:00 +26°C° 0.7 mm 1 mps 613 mmHg 57%
    16:00 +25°C° 0.7 mm 1 mps 613 mmHg 60%
    17:00 +23°C° 0.5 mm 1 mps 612 mmHg 69%
    18:00 +20°C° 0.5 mm 1 mps 612 mmHg 78%
    19:00 +18°C° 0.5 mm 1 mps 611 mmHg 88%
    20:00 +18°C° 0.2 mm 1 mps 612 mmHg 89%
    21:00 +16°C° 0.2 mm 1 mps 612 mmHg 90%
    22:00 +16°C° 0.2 mm 1 mps 612 mmHg 92%
    23:00 +15°C° 0 mm 1 mps 612 mmHg 92%

    27 August, Tuesday

    Time Temperature Precipitation Wind Pressure Humidity
    00:00 +15°C° 0 mm 1 mps 612 mmHg 92%
    01:00 +14°C° 0 mm 0 mps 612 mmHg 92%
    02:00 +14°C° 0.1 mm 0 mps 611 mmHg 92%
    03:00 +14°C° 0.1 mm 0 mps 611 mmHg 93%
    04:00 +14°C° 0.1 mm 0 mps 611 mmHg 93%
    05:00 +14°C° 0 mm 0 mps 612 mmHg 92%
    06:00 +15°C° 0 mm 0 mps 612 mmHg 92%
    07:00 +15°C° 0 mm 0 mps 613 mmHg 91%
    08:00 +18°C° 0 mm 0 mps 614 mmHg 79%
    09:00 +22°C° 0 mm 1 mps 615 mmHg 66%
    10:00 +25°C° 0 mm 1 mps 616 mmHg 54%
    11:00 +26°C° 0.2 mm 1 mps 615 mmHg 50%
    12:00 +27°C° 0.2 mm 1 mps 615 mmHg 45%
    13:00 +29°C° 0.2 mm 1 mps 615 mmHg 41%
    14:00 +28°C° 0.1 mm 1 mps 614 mmHg 43%
    15:00 +28°C° 0.1 mm 1 mps 614 mmHg 44%
    16:00 +27°C° 0.1 mm 1 mps 613 mmHg 46%
    17:00 +24°C° 0.1 mm 1 mps 612 mmHg 56%
    18:00 +22°C° 0.1 mm 1 mps 612 mmHg 67%
    19:00 +19°C° 0.1 mm 1 mps 611 mmHg 77%
    20:00 +18°C° 0.4 mm 1 mps 612 mmHg 81%
    21:00 +16°C° 0.4 mm 1 mps 612 mmHg 84%
    22:00 +16°C° 0.4 mm 1 mps 612 mmHg 88%
    23:00 +15°C° 0 mm 1 mps 612 mmHg 89%

    28 August, Wednesday

    Time Temperature Precipitation Wind Pressure Humidity
    00:00 +15°C° 0 mm 1 mps 612 mmHg 89%
    01:00 +14°C° 0 mm 0 mps 611 mmHg 90%
    02:00 +14°C° 0 mm 0 mps 611 mmHg 90%
    03:00 +13°C° 0 mm 0 mps 611 mmHg 91%
    04:00 +13°C° 0 mm 0 mps 611 mmHg 91%
    05:00 +14°C° 0 mm 0 mps 612 mmHg 90%
    06:00 +15°C° 0 mm 0 mps 613 mmHg 89%
    07:00 +15°C° 0 mm 0 mps 613 mmHg 88%
    08:00 +17°C° 0.2 mm 0 mps 614 mmHg 79%
    09:00 +20°C° 0.2 mm 0 mps 615 mmHg 70%
    10:00 +22°C° 0.2 mm 0 mps 616 mmHg 62%
    11:00 +25°C° 0.3 mm 1 mps 615 mmHg 57%
    12:00 +27°C° 0.3 mm 1 mps 615 mmHg 51%
    13:00 +28°C° 0.3 mm 1 mps 615 mmHg 46%
    14:00 +28°C° 0.1 mm 1 mps 614 mmHg 45%
    15:00 +28°C° 0.1 mm 1 mps 614 mmHg 44%
    16:00 +28°C° 0.1 mm 1 mps 614 mmHg 43%
    17:00 +25°C° 0.4 mm 1 mps 613 mmHg 57%
    18:00 +22°C° 0.4 mm 1 mps 612 mmHg 71%
    19:00 +19°C° 0.4 mm 1 mps 612 mmHg 85%
    20:00 +18°C° 0.8 mm 1 mps 612 mmHg 87%
    21:00 +16°C° 0.8 mm 1 mps 612 mmHg 90%
    22:00 +15°C° 0.8 mm 1 mps 612 mmHg 92%
    23:00 +14°C° 0.2 mm 0 mps 612 mmHg 93%
    Show more